Torna al catalogo

SCOUT G-1 R/B

AttivoPO
NORAD 19421·ROCKET BODY·🇺🇸 United States

Lanciato Aug 25, 1988 da Vandenberg Space Force Base

Loading…

Prossimi Passaggi (prossime 24 ore)

TLE

AggiornatoSource: Space-Track

Epoca: Sep 14, 2026, 15:23 UTC

1 19421U 88074C   26257.64157145  .00000071  00000-0  10731-3 0  9992
2 19421  90.0510  21.8521 0094802 208.3441 162.6801 13.42036983862827

Traccia SCOUT G-1 R/B in tempo reale con AllMySat

Download on the App Store